Tracking 29510 objects as of 16-Sep-2024
HD Live streaming from Space Station
objects crossing your sky now

COSMOS 1607 FUEL CORE

Track COSMOS 1607 FUEL CORE now!
10-day predictions


NORAD ID: 15503
Int'l Code: 1984-112C
Perigee: 919.9 km
Apogee: 969.0 km
Inclination: 65.0 °
Period: 103.8 minutes
Semi major axis: 7315 km
RCS: 0.1774 m2 (medium)
Launch date: October 31, 1984
Source: Commonwealth of Independent States (former USSR) (CIS)
Launch site: TYURATAM MISSILE AND SPACE COMPLEX (TTMTR)

Note: This is SATELLITE DEBRIS
Your satellite tracking list
Your tracking list is empty




NASA's NSSDC Master Catalog

Two Line Element Set (TLE):
1 15503U 84112C   24259.51472695 -.00000062  00000-0  23609-4 0  9994
2 15503  64.9964  25.7470 0033571 214.2575 145.6322 13.87527037  7300
Source of the keplerian elements: AFSPC